This demonstration page uses our WeatherBlox Daily Observations layout. Learn more.

39.29038, -76.61219

Hourly Observations for December 18, 2019

Temp ( °F °C ) Dew Point ( °F °C ) Humidity (%) Winds ( mph kmh ) Pressure ( in mb ) Visibility ( mi km ) Precip ( " mm )
12:54 am 00:54 undefined 39 3.9 25 -3.9 57 57 undefined N/A 29.88 1012 N/A 0 0
1:54 am 01:54 undefined 38 3.3 24 -4.4 57 57 undefined N/A 29.89 1012 N/A 0 0
2:54 am 02:54 undefined 37 2.8 24 -4.4 59 59 undefined N/A 29.92 1013 N/A 0 0
3:54 am 03:54 undefined 36 2.2 24 -4.4 62 62 undefined N/A 29.93 1014 N/A 0 0
4:54 am 04:54 undefined 35 1.7 22 -5.6 59 59 undefined N/A 29.93 1014 N/A 0 0
5:54 am 05:54 undefined 34 1.1 21 -6.1 59 59 undefined N/A 29.95 1014 N/A 0 0
6:54 am 06:54 undefined 32 0 21 -6.1 64 64 undefined N/A 29.97 1015 N/A 0 0
7:54 am 07:54 undefined 32 0 20 -6.7 61 61 undefined N/A 29.98 1015 N/A 0 0
8:54 am 08:54 undefined 34 1.1 21 -6.1 59 59 undefined N/A 30.01 1016 N/A 0 0
9:54 am 09:54 undefined 37 2.8 19 -7.2 48 48 undefined N/A 30.02 1017 N/A 0 0
10:54 am 10:54 undefined 39 3.9 17 -8.3 41 41 undefined N/A 30.01 1016 N/A 0 0
11:54 am 11:54 undefined 39 3.9 17 -8.3 41 41 undefined N/A 29.96 1015 N/A 0 0
12:54 pm 12:54 undefined 38 3.3 16 -8.9 41 41 undefined N/A 29.95 1014 N/A 0 0
1:54 pm 13:54 undefined 36 2.2 18 -7.8 48 48 undefined N/A 29.94 1014 N/A 0 0
2:54 pm 14:54 undefined 36 2.2 15 -9.4 42 42 undefined N/A 29.96 1015 N/A 0 0
3:54 pm 15:54 undefined 36 2.2 13 -10.6 39 39 undefined N/A 30.01 1016 N/A 0 0
4:54 pm 16:54 undefined 34 1.1 14 -10 44 44 undefined N/A 30.01 1016 N/A 0 0
5:54 pm 17:54 undefined 33 0.6 11 -11.7 40 40 undefined N/A 30.03 1017 N/A 0 0
6:54 pm 18:54 undefined 32 0 12 -11.1 43 43 undefined N/A 30.05 1018 N/A 0 0
7:54 pm 19:54 undefined 32 0 12 -11.1 43 43 undefined N/A 30.07 1018 N/A 0 0
8:54 pm 20:54 undefined 32 0 16 -8.9 52 52 undefined N/A 30.12 1020 N/A 0 0
9:54 pm 21:54 undefined 30 -1.1 7 -13.9 38 38 undefined N/A 30.13 1020 N/A 0 0
10:54 pm 22:54 undefined 28 -2.2 6 -14.4 39 39 undefined N/A 30.26 1025 N/A 0 0
11:54 pm 23:54 undefined 26 -3.3 3 -16.1 37 37 undefined N/A 30.19 1022 N/A 0 0

Powered by AerisWeather